Regional Weather Roundup
Issued by NWS

Home | Current Version | Previous Version | Graphics & Text | Print | Product List | Glossary On
Versions: 1 2 3 4 5 6 7 8 9 10 11 12 13 14 15 16 17 18 19 20 21 22 23 24 25 26 27 28 29 30 31 32 33 34 35 36 37 38 39 40 41 42 43 44 45 46 47 48 49 50
000
ASUS43 KLMK 242110
RWRKY
KENTUCKY REGIONAL WEATHER ROUNDUP
NATIONAL WEATHER SERVICE LOUISVILLE KY
500 PM EDT FRI OCT 24 2014

NOTE "FAIR" INDICATES FEW OR NO CLOUDS BELOW 12,000 FEET
WITH NO SIGNIFICANT WEATHER AND/OR OBSTRUCTIONS TO VISIBILITY.

KYZ001>023-026-027-061>063-070>075-242200-
WESTERN AND SOUTH CENTRAL KENTUCKY

CITY           SKY/WX    TMP DP  RH WIND       PRES   REMARKS
PADUCAH        SUNNY     71  52  50 W8        30.05F
HENDERSON      PTSUNNY  N/A N/A N/A W8        30.04F
OWENSBORO      MOSUNNY   69  51  52 W8        30.05F
HOPKINSVILLE   MOSUNNY   68  48  49 W3        30.06F
BOWLING GREEN  SUNNY     68  44  42 W5        30.06F
GLASGOW        SUNNY     68  43  41 SW3       30.05F
$$

KYZ024-025-028>034-038-045-046-053-242200-
NORTH CENTRAL KENTUCKY

CITY           SKY/WX    TMP DP  RH WIND       PRES   REMARKS
LOUISVILLE/SDF MOSUNNY   66  45  46 SW8       30.05S
LOUISVILLE/LOU MOSUNNY   65  45  48 SW5       30.06S
FORT KNOX      SUNNY     66  45  47 CALM      30.04F
$$

KYZ035>037-039>044-047>052-055>060-089>105-242200-
NORTHEAST KENTUCKY

CITY           SKY/WX    TMP DP  RH WIND       PRES   REMARKS
LEXINGTON      SUNNY     65  42  43 SW6       30.05F
COVINGTON      MOSUNNY   66  39  37 W6        30.04S
FRANKFORT      SUNNY     64  41  42 SW8       30.05S
$$

KYZ054-064>069-076>088-106>120-242200-
SOUTHEAST KENTUCKY

CITY           SKY/WX    TMP DP  RH WIND       PRES   REMARKS
JACKSON        SUNNY     63  38  39 VRB3      30.06S
LONDON         SUNNY     66  41  40 VRB3      30.05F
SOMERSET       SUNNY     63  43  48 CALM      30.06F
MIDDLESBORO    SUNNY     67  41  39 CALM      30.04S
MONTICELLO     CLEAR     68  42  38 CALM      30.07F
$$




USA.gov is the U.S. government's official web portal to all federal, state and local government web resources and services.